Time,TemperatureF,DewpointF,PressureIn,WindDirection,WindDirectionDegrees,WindSpeedMPH,WindSpeedGustMPH,Humidity,HourlyPrecipIn,Conditions,Clouds,dailyrainin,SoftwareType,DateUTC
2013-09-01 00:00:00,77.8,72.0,29.79,SW,215,2.0,0.0,81,0.00,,,0.00,oem by Ross Wheeler,2013-09-01 04:00:00,
2013-09-01 00:05:00,77.7,71.0,29.79,SSW,205,0.0,0.0,81,0.00,,,0.00,oem by Ross Wheeler,2013-09-01 04:05:00,
2013-09-01 00:10:00,77.7,71.0,29.79,WSW,240,0.0,0.0,81,0.00,,,0.00,oem by Ross Wheeler,2013-09-01 04:10:00,
2013-09-01 00:15:00,77.7,71.0,29.79,SW,217,1.0,0.0,81,0.00,,,0.00,oem by Ross Wheeler,2013-09-01 04:15:00,
2013-09-01 00:25:00,77.5,71.0,29.79,SSW,205,1.0,0.0,81,0.00,,,0.00,oem by Ross Wheeler,2013-09-01 04:25:00,
2013-09-01 00:30:00,77.5,71.0,29.79,South,172,2.0,0.0,81,0.00,,,0.00,oem by Ross Wheeler,2013-09-01 04:30:00,
2013-09-01 00:40:00,77.5,71.0,29.79,SSW,206,1.0,0.0,81,0.00,,,0.00,oem by Ross Wheeler,2013-09-01 04:40:00,
2013-09-01 00:45:00,77.5,71.0,29.80,SW,223,1.0,0.0,81,0.00,,,0.00,oem by Ross Wheeler,2013-09-01 04:45:00,
2013-09-01 00:55:00,77.3,71.0,29.80,SSW,213,3.0,0.0,81,0.00,,,0.00,oem by Ross Wheeler,2013-09-01 04:55:00,
2013-09-01 01:00:00,77.3,71.0,29.80,SW,223,4.0,0.0,81,0.00,,,0.00,oem by Ross Wheeler,2013-09-01 05:00:00,
2013-09-01 01:10:00,77.1,71.0,29.80,SSW,202,6.0,0.0,81,0.00,,,0.00,oem by Ross Wheeler,2013-09-01 05:10:00,
2013-09-01 01:15:00,77.1,71.0,29.80,SSW,207,0.0,0.0,81,0.00,,,0.00,oem by Ross Wheeler,2013-09-01 05:15:00,
2013-09-01 01:25:00,76.9,71.0,29.80,South,188,1.0,0.0,82,0.00,,,0.00,oem by Ross Wheeler,2013-09-01 05:25:00,
2013-09-01 01:31:00,76.9,71.0,29.79,SW,224,2.0,0.0,82,0.00,,,0.00,oem by Ross Wheeler,2013-09-01 05:31:00,
2013-09-01 01:40:00,76.8,71.0,29.79,SW,219,2.0,0.0,82,0.00,,,0.00,oem by Ross Wheeler,2013-09-01 05:40:00,
2013-09-01 01:45:00,76.6,71.0,29.79,SSW,210,0.0,0.0,82,0.00,,,0.00,oem by Ross Wheeler,2013-09-01 05:45:00,
2013-09-01 01:55:00,76.4,71.0,29.79,SSW,213,0.0,0.0,83,0.00,,,0.00,oem by Ross Wheeler,2013-09-01 05:55:00,
2013-09-01 02:00:00,76.4,71.0,29.78,SSW,213,0.0,0.0,83,0.00,,,0.00,oem by Ross Wheeler,2013-09-01 06:00:00,
2013-09-01 02:10:00,76.0,71.0,29.78,SSW,213,0.0,0.0,84,0.00,,,0.00,oem by Ross Wheeler,2013-09-01 06:10:00,
2013-09-01 02:15:00,75.9,71.0,29.78,SSW,213,0.0,0.0,85,0.00,,,0.00,oem by Ross Wheeler,2013-09-01 06:15:00,
2013-09-01 02:25:00,75.5,71.0,29.78,SSW,213,0.0,0.0,85,0.00,,,0.00,oem by Ross Wheeler,2013-09-01 06:25:00,
2013-09-01 02:30:00,75.3,71.0,29.78,SSW,213,0.0,0.0,86,0.00,,,0.00,oem by Ross Wheeler,2013-09-01 06:30:00,
2013-09-01 02:40:00,75.2,71.0,29.78,SSW,203,0.0,0.0,86,0.00,,,0.00,oem by Ross Wheeler,2013-09-01 06:40:00,
2013-09-01 02:45:00,75.2,71.0,29.78,SSW,207,1.0,0.0,87,0.00,,,0.00,oem by Ross Wheeler,2013-09-01 06:45:00,
2013-09-01 02:55:00,75.2,71.0,29.78,WSW,241,0.0,0.0,87,0.00,,,0.00,oem by Ross Wheeler,2013-09-01 06:55:00,
2013-09-01 03:00:00,75.2,72.0,29.78,SW,216,0.0,0.0,88,0.00,,,0.00,oem by Ross Wheeler,2013-09-01 07:00:00,
2013-09-01 03:10:00,75.0,71.0,29.78,SSW,212,0.0,0.0,88,0.00,,,0.00,oem by Ross Wheeler,2013-09-01 07:10:00,
2013-09-01 03:15:00,75.0,71.0,29.78,SSW,212,0.0,0.0,88,0.00,,,0.00,oem by Ross Wheeler,2013-09-01 07:15:00,
2013-09-01 03:25:00,74.8,71.0,29.78,SSW,212,0.0,0.0,88,0.00,,,0.00,oem by Ross Wheeler,2013-09-01 07:25:00,
2013-09-01 03:30:00,74.8,71.0,29.78,SSW,212,0.0,0.0,88,0.00,,,0.00,oem by Ross Wheeler,2013-09-01 07:30:00,
2013-09-01 03:40:00,74.6,71.0,29.78,SSW,196,0.0,0.0,89,0.00,,,0.00,oem by Ross Wheeler,2013-09-01 07:40:00,
2013-09-01 03:45:00,74.6,71.0,29.78,SW,216,0.0,0.0,89,0.00,,,0.00,oem by Ross Wheeler,2013-09-01 07:45:00,
2013-09-01 03:55:00,74.6,72.0,29.78,SSW,198,1.0,0.0,90,0.00,,,0.00,oem by Ross Wheeler,2013-09-01 07:55:00,
2013-09-01 04:00:00,74.5,72.0,29.78,ESE,116,0.0,0.0,91,0.00,,,0.02,oem by Ross Wheeler,2013-09-01 08:00:00,
2013-09-01 04:10:00,73.8,71.0,29.78,SW,229,2.0,0.0,91,0.00,,,0.09,oem by Ross Wheeler,2013-09-01 08:10:00,
2013-09-01 04:15:00,73.4,71.0,29.78,SSW,213,1.0,0.0,92,0.00,,,0.11,oem by Ross Wheeler,2013-09-01 08:15:00,
2013-09-01 04:25:00,72.9,71.0,29.78,SSE,165,0.0,0.0,93,0.00,,,0.18,oem by Ross Wheeler,2013-09-01 08:25:00,
2013-09-01 04:30:00,72.5,70.0,29.78,SSW,209,0.0,0.0,93,0.00,,,0.20,oem by Ross Wheeler,2013-09-01 08:30:00,
2013-09-01 04:40:00,72.4,71.0,29.78,SW,222,0.0,0.0,94,0.00,,,0.20,oem by Ross Wheeler,2013-09-01 08:40:00,
2013-09-01 04:45:00,72.4,71.0,29.78,SW,222,0.0,0.0,94,0.00,,,0.20,oem by Ross Wheeler,2013-09-01 08:45:00,
2013-09-01 04:55:00,72.2,71.0,29.78,SSW,207,0.0,0.0,95,0.00,,,0.20,oem by Ross Wheeler,2013-09-01 08:55:00,
2013-09-01 05:00:00,72.0,71.0,29.78,SSW,207,0.0,0.0,95,0.00,,,0.21,oem by Ross Wheeler,2013-09-01 09:00:00,
2013-09-01 05:10:00,71.9,71.0,29.78,SSW,207,0.0,0.0,95,0.00,,,0.21,oem by Ross Wheeler,2013-09-01 09:10:00,
2013-09-01 05:15:00,71.7,70.0,29.79,SSW,207,0.0,0.0,95,0.00,,,0.21,oem by Ross Wheeler,2013-09-01 09:15:00,
2013-09-01 05:25:00,71.7,71.0,29.79,SSW,207,0.0,0.0,96,0.00,,,0.21,oem by Ross Wheeler,2013-09-01 09:25:00,
2013-09-01 05:30:00,71.7,71.0,29.79,SSW,207,0.0,0.0,96,0.00,,,0.21,oem by Ross Wheeler,2013-09-01 09:30:00,
2013-09-01 05:40:00,71.7,71.0,29.79,SSW,207,0.0,0.0,96,0.00,,,0.21,oem by Ross Wheeler,2013-09-01 09:40:00,
2013-09-01 05:45:00,71.5,70.0,29.79,SSW,207,0.0,0.0,96,0.00,,,0.21,oem by Ross Wheeler,2013-09-01 09:45:00,
2013-09-01 05:55:00,71.7,71.0,29.79,SSW,207,0.0,0.0,96,0.00,,,0.21,oem by Ross Wheeler,2013-09-01 09:55:00,
2013-09-01 06:00:00,71.7,71.0,29.79,SSW,207,0.0,0.0,96,0.00,,,0.21,oem by Ross Wheeler,2013-09-01 10:00:00,
2013-09-01 06:10:00,71.9,71.0,29.79,SSW,207,0.0,0.0,96,0.00,,,0.21,oem by Ross Wheeler,2013-09-01 10:10:00,
2013-09-01 06:15:00,71.9,71.0,29.80,SSW,207,0.0,0.0,96,0.00,,,0.21,oem by Ross Wheeler,2013-09-01 10:15:00,
2013-09-01 06:25:00,71.9,71.0,29.80,SSW,207,0.0,0.0,97,0.00,,,0.21,oem by Ross Wheeler,2013-09-01 10:25:00,
2013-09-01 06:30:00,71.9,71.0,29.80,SSW,207,0.0,0.0,97,0.00,,,0.21,oem by Ross Wheeler,2013-09-01 10:30:00,
2013-09-01 06:40:00,71.9,71.0,29.80,SSW,207,0.0,0.0,97,0.00,,,0.21,oem by Ross Wheeler,2013-09-01 10:40:00,
2013-09-01 06:45:00,71.9,71.0,29.80,SSW,207,1.0,0.0,97,0.00,,,0.21,oem by Ross Wheeler,2013-09-01 10:45:00,
2013-09-01 06:55:00,72.0,71.0,29.80,SSW,207,0.0,0.0,97,0.00,,,0.21,oem by Ross Wheeler,2013-09-01 10:55:00,
2013-09-01 07:00:00,72.0,71.0,29.80,SSW,207,0.0,0.0,97,0.00,,,0.21,oem by Ross Wheeler,2013-09-01 11:00:00,
2013-09-01 07:10:00,72.0,71.0,29.80,SSW,207,0.0,0.0,97,0.00,,,0.21,oem by Ross Wheeler,2013-09-01 11:10:00,
2013-09-01 07:15:00,72.0,71.0,29.81,SSW,207,0.0,0.0,97,0.00,,,0.21,oem by Ross Wheeler,2013-09-01 11:15:00,
2013-09-01 07:25:00,72.2,71.0,29.81,SSW,207,0.0,0.0,97,0.00,,,0.21,oem by Ross Wheeler,2013-09-01 11:25:00,
2013-09-01 07:30:00,72.2,71.0,29.81,SSW,207,0.0,0.0,97,0.00,,,0.21,oem by Ross Wheeler,2013-09-01 11:30:00,
2013-09-01 07:40:00,72.5,72.0,29.81,SSW,207,0.0,0.0,98,0.00,,,0.21,oem by Ross Wheeler,2013-09-01 11:40:00,
2013-09-01 07:45:00,72.7,72.0,29.81,SSW,207,0.0,0.0,98,0.00,,,0.21,oem by Ross Wheeler,2013-09-01 11:45:00,
2013-09-01 07:55:00,72.7,72.0,29.81,SSW,207,0.0,0.0,98,0.00,,,0.21,oem by Ross Wheeler,2013-09-01 11:55:00,
2013-09-01 08:00:00,72.9,72.0,29.81,SSW,207,0.0,0.0,98,0.00,,,0.21,oem by Ross Wheeler,2013-09-01 12:00:00,
2013-09-01 08:10:00,73.1,73.0,29.81,SSW,207,0.0,0.0,98,0.00,,,0.21,oem by Ross Wheeler,2013-09-01 12:10:00,
2013-09-01 08:15:00,73.1,73.0,29.81,SSW,207,0.0,0.0,98,0.00,,,0.21,oem by Ross Wheeler,2013-09-01 12:15:00,
2013-09-01 08:25:00,73.2,73.0,29.81,SSW,207,0.0,0.0,98,0.00,,,0.22,oem by Ross Wheeler,2013-09-01 12:25:00,
2013-09-01 08:30:00,73.6,73.0,29.81,SSW,207,0.0,0.0,98,0.00,,,0.22,oem by Ross Wheeler,2013-09-01 12:30:00,
2013-09-01 08:40:00,73.8,73.0,29.81,SSW,207,0.0,0.0,98,0.00,,,0.22,oem by Ross Wheeler,2013-09-01 12:40:00,
2013-09-01 08:45:00,73.8,73.0,29.81,SSW,207,0.0,0.0,98,0.00,,,0.22,oem by Ross Wheeler,2013-09-01 12:45:00,
2013-09-01 08:55:00,73.8,73.0,29.81,SSW,207,0.0,0.0,98,0.00,,,0.22,oem by Ross Wheeler,2013-09-01 12:55:00,
2013-09-01 09:00:00,73.9,73.0,29.82,SW,224,3.0,0.0,98,0.00,,,0.22,oem by Ross Wheeler,2013-09-01 13:00:00,
2013-09-01 09:10:00,74.1,73.0,29.82,SSW,210,2.0,0.0,97,0.00,,,0.22,oem by Ross Wheeler,2013-09-01 13:10:00,
2013-09-01 09:15:00,73.9,73.0,29.82,SSW,193,5.0,0.0,97,0.00,,,0.22,oem by Ross Wheeler,2013-09-01 13:15:00,
2013-09-01 09:25:00,73.6,73.0,29.82,SSW,206,1.0,0.0,97,0.00,,,0.22,oem by Ross Wheeler,2013-09-01 13:25:00,
2013-09-01 09:30:00,73.8,73.0,29.82,SW,231,0.0,0.0,97,0.00,,,0.22,oem by Ross Wheeler,2013-09-01 13:30:00,
2013-09-01 09:40:00,73.8,73.0,29.82,SW,216,1.0,0.0,97,0.00,,,0.22,oem by Ross Wheeler,2013-09-01 13:40:00,
2013-09-01 09:45:00,73.9,73.0,29.82,SW,216,0.0,0.0,97,0.00,,,0.22,oem by Ross Wheeler,2013-09-01 13:45:00,
2013-09-01 09:55:00,74.1,73.0,29.82,SSW,200,1.0,0.0,97,0.00,,,0.22,oem by Ross Wheeler,2013-09-01 13:55:00,
2013-09-01 10:00:00,74.1,73.0,29.83,SW,216,0.0,0.0,97,0.00,,,0.22,oem by Ross Wheeler,2013-09-01 14:00:00,
2013-09-01 10:10:00,74.3,73.0,29.83,SW,216,0.0,0.0,96,0.00,,,0.22,oem by Ross Wheeler,2013-09-01 14:10:00,
2013-09-01 10:15:00,74.3,73.0,29.83,SSW,206,1.0,0.0,96,0.00,,,0.22,oem by Ross Wheeler,2013-09-01 14:15:00,
2013-09-01 10:25:00,74.6,73.0,29.83,SSW,207,0.0,0.0,96,0.00,,,0.22,oem by Ross Wheeler,2013-09-01 14:25:00,
2013-09-01 10:30:00,74.8,74.0,29.83,SSW,207,0.0,0.0,96,0.00,,,0.22,oem by Ross Wheeler,2013-09-01 14:30:00,
2013-09-01 10:40:00,74.6,73.0,29.83,SSW,205,0.0,0.0,95,0.00,,,0.22,oem by Ross Wheeler,2013-09-01 14:40:00,
2013-09-01 10:45:00,74.6,73.0,29.83,SW,231,1.0,0.0,95,0.00,,,0.22,oem by Ross Wheeler,2013-09-01 14:45:00,
2013-09-01 10:55:00,74.8,73.0,29.82,SW,223,1.0,0.0,94,0.00,,,0.22,oem by Ross Wheeler,2013-09-01 14:55:00,
2013-09-01 11:00:00,75.0,73.0,29.82,SW,222,0.0,0.0,94,0.00,,,0.22,oem by Ross Wheeler,2013-09-01 15:00:00,
2013-09-01 11:10:00,75.2,73.0,29.82,SW,222,0.0,0.0,93,0.00,,,0.22,oem by Ross Wheeler,2013-09-01 15:10:00,
2013-09-01 11:15:00,75.5,73.0,29.81,SW,215,0.0,0.0,92,0.00,,,0.22,oem by Ross Wheeler,2013-09-01 15:15:00,
2013-09-01 11:25:00,76.0,73.0,29.81,SSW,210,1.0,0.0,90,0.00,,,0.22,oem by Ross Wheeler,2013-09-01 15:25:00,
2013-09-01 11:30:00,76.6,74.0,29.82,SW,216,0.0,0.0,90,0.00,,,0.22,oem by Ross Wheeler,2013-09-01 15:30:00,
2013-09-01 11:40:00,76.9,73.0,29.82,SW,216,0.0,0.0,88,0.00,,,0.22,oem by Ross Wheeler,2013-09-01 15:40:00,
2013-09-01 11:45:00,77.1,74.0,29.82,SW,217,0.0,0.0,89,0.00,,,0.22,oem by Ross Wheeler,2013-09-01 15:45:00,
2013-09-01 11:55:00,77.1,73.0,29.81,SW,217,0.0,0.0,88,0.00,,,0.22,oem by Ross Wheeler,2013-09-01 15:55:00,
2013-09-01 12:00:00,77.3,73.0,29.81,SW,217,0.0,0.0,87,0.00,,,0.22,oem by Ross Wheeler,2013-09-01 16:00:00,
2013-09-01 12:10:00,77.8,74.0,29.81,SW,217,0.0,0.0,88,0.00,,,0.22,oem by Ross Wheeler,2013-09-01 16:10:00,
2013-09-01 12:15:00,78.0,74.0,29.80,SSW,205,0.0,0.0,86,0.00,,,0.22,oem by Ross Wheeler,2013-09-01 16:15:00,
2013-09-01 12:25:00,78.4,74.0,29.80,SSW,209,0.0,0.0,86,0.00,,,0.22,oem by Ross Wheeler,2013-09-01 16:25:00,
2013-09-01 12:30:00,78.6,73.0,29.80,SSW,209,0.0,0.0,84,0.00,,,0.22,oem by Ross Wheeler,2013-09-01 16:30:00,
2013-09-01 12:40:00,78.8,74.0,29.80,SSW,207,2.0,0.0,86,0.00,,,0.22,oem by Ross Wheeler,2013-09-01 16:40:00,
2013-09-01 12:45:00,78.8,73.0,29.80,SSW,212,2.0,0.0,83,0.00,,,0.22,oem by Ross Wheeler,2013-09-01 16:45:00,
2013-09-01 12:55:00,79.3,73.0,29.80,South,182,0.0,0.0,81,0.00,,,0.22,oem by Ross Wheeler,2013-09-01 16:55:00,
2013-09-01 13:00:00,79.7,74.0,29.80,SW,226,1.0,0.0,82,0.00,,,0.22,oem by Ross Wheeler,2013-09-01 17:00:00,
2013-09-01 13:10:00,80.4,73.0,29.80,SSW,206,1.0,0.0,78,0.00,,,0.22,oem by Ross Wheeler,2013-09-01 17:10:00,
2013-09-01 13:15:00,80.4,73.0,29.80,WSW,244,2.0,0.0,77,0.00,,,0.22,oem by Ross Wheeler,2013-09-01 17:15:00,
2013-09-01 13:25:00,80.6,73.0,29.79,SW,215,0.0,0.0,77,0.00,,,0.22,oem by Ross Wheeler,2013-09-01 17:25:00,
2013-09-01 13:30:00,80.6,73.0,29.79,SW,215,0.0,0.0,77,0.00,,,0.22,oem by Ross Wheeler,2013-09-01 17:30:00,
2013-09-01 13:40:00,80.4,74.0,29.79,SW,215,0.0,0.0,81,0.00,,,0.22,oem by Ross Wheeler,2013-09-01 17:40:00,
2013-09-01 13:45:00,80.4,75.0,29.79,SW,215,0.0,0.0,83,0.00,,,0.22,oem by Ross Wheeler,2013-09-01 17:45:00,
2013-09-01 13:55:00,80.4,74.0,29.80,SW,215,0.0,0.0,81,0.00,,,0.22,oem by Ross Wheeler,2013-09-01 17:55:00,
2013-09-01 14:00:00,80.6,74.0,29.80,SW,215,0.0,0.0,81,0.00,,,0.22,oem by Ross Wheeler,2013-09-01 18:00:00,
2013-09-01 14:10:00,80.6,74.0,29.79,SW,215,0.0,0.0,81,0.00,,,0.22,oem by Ross Wheeler,2013-09-01 18:10:00,
2013-09-01 14:15:00,81.0,75.0,29.79,SW,215,0.0,0.0,81,0.00,,,0.22,oem by Ross Wheeler,2013-09-01 18:15:00,
2013-09-01 14:25:00,81.6,74.0,29.78,SW,215,1.0,0.0,77,0.00,,,0.22,oem by Ross Wheeler,2013-09-01 18:25:00,
2013-09-01 14:30:00,81.6,75.0,29.78,SW,215,0.0,0.0,79,0.00,,,0.22,oem by Ross Wheeler,2013-09-01 18:30:00,
2013-09-01 14:40:00,81.8,75.0,29.78,SW,215,0.0,0.0,79,0.00,,,0.22,oem by Ross Wheeler,2013-09-01 18:40:00,
2013-09-01 14:45:00,82.2,75.0,29.78,SW,215,0.0,0.0,79,0.00,,,0.22,oem by Ross Wheeler,2013-09-01 18:45:00,
2013-09-01 14:55:00,82.4,75.0,29.78,SW,215,0.0,0.0,77,0.00,,,0.22,oem by Ross Wheeler,2013-09-01 18:55:00,
2013-09-01 15:00:00,82.6,75.0,29.78,SW,215,0.0,0.0,77,0.00,,,0.22,oem by Ross Wheeler,2013-09-01 19:00:00,
2013-09-01 15:10:00,82.8,74.0,29.78,SW,215,1.0,0.0,74,0.00,,,0.22,oem by Ross Wheeler,2013-09-01 19:10:00,
2013-09-01 15:15:00,82.8,74.0,29.78,SW,215,0.0,0.0,74,0.00,,,0.22,oem by Ross Wheeler,2013-09-01 19:15:00,
2013-09-01 15:25:00,82.8,75.0,29.77,SW,215,0.0,0.0,77,0.00,,,0.22,oem by Ross Wheeler,2013-09-01 19:25:00,
2013-09-01 15:30:00,82.6,75.0,29.77,SW,215,0.0,0.0,77,0.00,,,0.22,oem by Ross Wheeler,2013-09-01 19:30:00,
2013-09-01 15:40:00,82.2,74.0,29.77,ESE,104,0.0,0.0,77,0.00,,,0.22,oem by Ross Wheeler,2013-09-01 19:40:00,
2013-09-01 15:45:00,82.2,75.0,29.76,ESE,104,1.0,0.0,78,0.00,,,0.22,oem by Ross Wheeler,2013-09-01 19:45:00,
2013-09-01 15:55:00,82.0,74.0,29.76,ESE,104,0.0,0.0,77,0.00,,,0.22,oem by Ross Wheeler,2013-09-01 19:55:00,
2013-09-01 16:00:00,81.8,74.0,29.76,ESE,104,1.0,0.0,78,0.00,,,0.22,oem by Ross Wheeler,2013-09-01 20:00:00,
2013-09-01 16:10:00,81.4,74.0,29.76,ESE,104,0.0,0.0,79,0.00,,,0.22,oem by Ross Wheeler,2013-09-01 20:10:00,
2013-09-01 16:15:00,81.2,74.0,29.76,ESE,104,1.0,0.0,79,0.00,,,0.22,oem by Ross Wheeler,2013-09-01 20:15:00,
2013-09-01 16:25:00,80.8,74.0,29.76,ESE,104,0.0,0.0,79,0.00,,,0.22,oem by Ross Wheeler,2013-09-01 20:25:00,
2013-09-01 16:30:00,80.8,74.0,29.76,ESE,104,0.0,0.0,80,0.00,,,0.22,oem by Ross Wheeler,2013-09-01 20:30:00,
2013-09-01 16:40:00,80.6,74.0,29.76,ESE,104,0.0,0.0,80,0.00,,,0.22,oem by Ross Wheeler,2013-09-01 20:40:00,
2013-09-01 16:45:00,80.4,74.0,29.76,ESE,104,0.0,0.0,80,0.00,,,0.22,oem by Ross Wheeler,2013-09-01 20:45:00,
2013-09-01 16:55:00,80.3,74.0,29.76,ESE,104,1.0,0.0,81,0.00,,,0.22,oem by Ross Wheeler,2013-09-01 20:55:00,
2013-09-01 17:00:00,80.1,74.0,29.76,ESE,104,0.0,0.0,81,0.00,,,0.22,oem by Ross Wheeler,2013-09-01 21:00:00,
2013-09-01 17:10:00,80.1,73.0,29.75,ESE,104,1.0,0.0,80,0.00,,,0.22,oem by Ross Wheeler,2013-09-01 21:10:00,
2013-09-01 17:15:00,79.9,74.0,29.75,ESE,104,1.0,0.0,81,0.00,,,0.22,oem by Ross Wheeler,2013-09-01 21:15:00,
2013-09-01 17:25:00,79.3,73.0,29.77,ESE,104,0.0,0.0,82,0.00,,,0.22,oem by Ross Wheeler,2013-09-01 21:25:00,
2013-09-01 17:30:00,79.1,74.0,29.76,ESE,104,0.0,0.0,83,0.00,,,0.22,oem by Ross Wheeler,2013-09-01 21:30:00,
2013-09-01 17:40:00,79.0,74.0,29.76,ESE,104,0.0,0.0,83,0.00,,,0.22,oem by Ross Wheeler,2013-09-01 21:40:00,
2013-09-01 17:45:00,79.1,74.0,29.76,ESE,104,0.0,0.0,84,0.00,,,0.22,oem by Ross Wheeler,2013-09-01 21:45:00,
2013-09-01 17:55:00,79.3,73.0,29.76,ESE,104,0.0,0.0,81,0.00,,,0.22,oem by Ross Wheeler,2013-09-01 21:55:00,
2013-09-01 18:00:00,79.1,73.0,29.76,SE,143,0.0,0.0,81,0.00,,,0.22,oem by Ross Wheeler,2013-09-01 22:00:00,
2013-09-01 18:10:00,78.8,72.0,29.76,SE,144,0.0,0.0,80,0.00,,,0.22,oem by Ross Wheeler,2013-09-01 22:10:00,
2013-09-01 18:15:00,78.8,73.0,29.76,WSW,247,0.0,0.0,81,0.00,,,0.22,oem by Ross Wheeler,2013-09-01 22:15:00,
2013-09-01 18:25:00,78.4,71.0,29.76,South,186,0.0,0.0,79,0.00,,,0.22,oem by Ross Wheeler,2013-09-01 22:25:00,
2013-09-01 18:30:00,78.2,71.0,29.77,SSW,203,4.0,0.0,79,0.00,,,0.22,oem by Ross Wheeler,2013-09-01 22:30:00,
2013-09-01 18:40:00,77.8,71.0,29.77,SW,216,0.0,0.0,79,0.00,,,0.22,oem by Ross Wheeler,2013-09-01 22:40:00,
2013-09-01 18:45:00,77.8,71.0,29.76,SW,216,0.0,0.0,80,0.00,,,0.22,oem by Ross Wheeler,2013-09-01 22:45:00,
2013-09-01 18:55:00,77.5,71.0,29.76,SW,216,0.0,0.0,80,0.00,,,0.22,oem by Ross Wheeler,2013-09-01 22:55:00,
2013-09-01 19:00:00,77.3,70.0,29.76,WSW,239,1.0,0.0,79,0.00,,,0.22,oem by Ross Wheeler,2013-09-01 23:00:00,
2013-09-01 19:10:00,77.1,69.0,29.77,SW,219,0.0,0.0,77,0.00,,,0.22,oem by Ross Wheeler,2013-09-01 23:10:00,
2013-09-01 19:15:00,76.9,69.0,29.77,SW,219,0.0,0.0,77,0.00,,,0.22,oem by Ross Wheeler,2013-09-01 23:15:00,
2013-09-01 19:25:00,76.8,69.0,29.77,SW,219,0.0,0.0,78,0.00,,,0.22,oem by Ross Wheeler,2013-09-01 23:25:00,
2013-09-01 19:30:00,76.8,70.0,29.77,SW,219,0.0,0.0,79,0.00,,,0.22,oem by Ross Wheeler,2013-09-01 23:30:00,
2013-09-01 19:40:00,76.6,70.0,29.76,SSW,207,0.0,0.0,79,0.00,,,0.22,oem by Ross Wheeler,2013-09-01 23:40:00,
2013-09-01 19:45:00,76.4,70.0,29.76,SSW,207,0.0,0.0,81,0.00,,,0.22,oem by Ross Wheeler,2013-09-01 23:45:00,
2013-09-01 19:55:00,76.0,69.0,29.76,SSW,207,0.0,0.0,80,0.00,,,0.22,oem by Ross Wheeler,2013-09-01 23:55:00,
2013-09-01 20:00:00,75.9,70.0,29.76,SSW,207,0.0,0.0,81,0.00,,,0.22,oem by Ross Wheeler,2013-09-02 00:00:00,
2013-09-01 20:10:00,75.7,70.0,29.76,SSW,207,0.0,0.0,82,0.00,,,0.22,oem by Ross Wheeler,2013-09-02 00:10:00,
2013-09-01 20:15:00,75.5,70.0,29.76,SSW,207,0.0,0.0,82,0.00,,,0.22,oem by Ross Wheeler,2013-09-02 00:15:00,
2013-09-01 20:25:00,75.2,70.0,29.77,SSW,207,0.0,0.0,83,0.00,,,0.22,oem by Ross Wheeler,2013-09-02 00:25:00,
2013-09-01 20:30:00,75.2,70.0,29.77,SSW,207,0.0,0.0,83,0.00,,,0.22,oem by Ross Wheeler,2013-09-02 00:30:00,
2013-09-01 20:40:00,75.0,70.0,29.78,SSW,207,0.0,0.0,83,0.00,,,0.22,oem by Ross Wheeler,2013-09-02 00:40:00,
2013-09-01 20:45:00,74.8,69.0,29.78,SSW,207,0.0,0.0,83,0.00,,,0.22,oem by Ross Wheeler,2013-09-02 00:45:00,
2013-09-01 20:55:00,74.8,70.0,29.78,SSW,207,0.0,0.0,84,0.00,,,0.22,oem by Ross Wheeler,2013-09-02 00:55:00,
2013-09-01 21:00:00,74.8,70.0,29.78,SSW,207,0.0,0.0,84,0.00,,,0.22,oem by Ross Wheeler,2013-09-02 01:00:00,
2013-09-01 21:10:00,74.5,69.0,29.79,SSW,207,0.0,0.0,84,0.00,,,0.22,oem by Ross Wheeler,2013-09-02 01:10:00,
2013-09-01 21:15:00,74.5,70.0,29.79,SSW,207,0.0,0.0,86,0.00,,,0.22,oem by Ross Wheeler,2013-09-02 01:15:00,
2013-09-01 21:25:00,74.5,70.0,29.79,SSW,206,0.0,0.0,86,0.00,,,0.22,oem by Ross Wheeler,2013-09-02 01:25:00,
2013-09-01 21:30:00,74.3,70.0,29.79,SSW,207,0.0,0.0,87,0.00,,,0.22,oem by Ross Wheeler,2013-09-02 01:30:00,
2013-09-01 21:40:00,74.1,70.0,29.79,SSW,207,0.0,0.0,87,0.00,,,0.22,oem by Ross Wheeler,2013-09-02 01:40:00,
2013-09-01 21:45:00,74.1,70.0,29.79,SSW,207,0.0,0.0,88,0.00,,,0.22,oem by Ross Wheeler,2013-09-02 01:45:00,
2013-09-01 21:55:00,73.9,70.0,29.79,SSW,207,0.0,0.0,88,0.00,,,0.22,oem by Ross Wheeler,2013-09-02 01:55:00,
2013-09-01 22:00:00,73.8,70.0,29.79,SSW,207,0.0,0.0,88,0.00,,,0.22,oem by Ross Wheeler,2013-09-02 02:00:00,
2013-09-01 22:10:00,73.8,70.0,29.80,SSW,207,0.0,0.0,89,0.00,,,0.22,oem by Ross Wheeler,2013-09-02 02:10:00,
2013-09-01 22:15:00,73.8,70.0,29.80,SSW,206,0.0,0.0,89,0.00,,,0.22,oem by Ross Wheeler,2013-09-02 02:15:00,
2013-09-01 22:25:00,73.9,71.0,29.79,SSW,207,0.0,0.0,90,0.00,,,0.22,oem by Ross Wheeler,2013-09-02 02:25:00,
2013-09-01 22:30:00,73.8,70.0,29.79,SSW,207,0.0,0.0,89,0.00,,,0.22,oem by Ross Wheeler,2013-09-02 02:30:00,
2013-09-01 22:40:00,73.6,70.0,29.79,SSW,206,0.0,0.0,89,0.00,,,0.22,oem by Ross Wheeler,2013-09-02 02:40:00,
2013-09-01 22:45:00,73.6,71.0,29.79,SSW,206,0.0,0.0,90,0.00,,,0.22,oem by Ross Wheeler,2013-09-02 02:45:00,
2013-09-01 22:55:00,73.6,71.0,29.79,SSW,207,0.0,0.0,90,0.00,,,0.22,oem by Ross Wheeler,2013-09-02 02:55:00,
2013-09-01 23:00:00,73.4,70.0,29.79,SSW,207,0.0,0.0,90,0.00,,,0.22,oem by Ross Wheeler,2013-09-02 03:00:00,
2013-09-01 23:10:00,73.4,71.0,29.78,SSW,207,0.0,0.0,91,0.00,,,0.22,oem by Ross Wheeler,2013-09-02 03:10:00,
2013-09-01 23:15:00,73.4,71.0,29.78,SSW,206,0.0,0.0,91,0.00,,,0.22,oem by Ross Wheeler,2013-09-02 03:15:00,
2013-09-01 23:25:00,73.6,71.0,29.78,SSW,207,0.0,0.0,92,0.00,,,0.22,oem by Ross Wheeler,2013-09-02 03:25:00,
2013-09-01 23:30:00,73.6,71.0,29.78,SSW,207,0.0,0.0,92,0.00,,,0.22,oem by Ross Wheeler,2013-09-02 03:30:00,
2013-09-01 23:40:00,73.6,71.0,29.77,SSW,207,0.0,0.0,92,0.00,,,0.22,oem by Ross Wheeler,2013-09-02 03:40:00,
2013-09-01 23:45:00,73.6,71.0,29.77,SSW,207,0.0,0.0,92,0.00,,,0.22,oem by Ross Wheeler,2013-09-02 03:45:00,
2013-09-01 23:55:00,73.6,72.0,29.77,SSW,206,0.0,0.0,93,0.00,,,0.22,oem by Ross Wheeler,2013-09-02 03:55:00,